#timestamp,LO_Frequency,Hit,StdDev 
1570456815.6,286046995.1,N
1570456835.4,286046996.4,N
1570456855.3,286046994.1,Y
1570456875.1,286046995.3,P
1570456895.9,286046995.3,P
1570456915.7,286046996.3,P
1570456935.5,286046999.6,N
1570456955.4,286046998.4,N
1570456975.2,286047001.0,N
1570456995.0,286047000.8,N
1570456996.0,286047000.8,N
1570457015.8,286047001.0,N
1570457035.6,286047000.2,N
1570457055.5,286047003.3,N
1570457075.3,286047001.4,N
1570457095.1,286047004.0,N
1570457115.9,286047002.1,N
1570457135.7,286047002.1,N
1570457155.6,286047011.9,Y
1570457175.4,286047005.9,P
1570457195.2,286047001.4,N
1570457215.1,286047003.9,N
1570457216.0,286047003.9,N
1570457235.8,286047005.9,N
1570457255.7,286047007.2,Y
1570457275.5,286046999.8,P
1570457295.3,286046999.7,N
1570457315.2,286047000.8,N
1570457335.9,286047002.4,N
1570457355.7,286047002.3,N
1570457375.6,286047001.7,N
1570457395.4,286047000.8,N
1570457415.3,286047004.0,Y
1570457435.1,286047000.5,P
1570457436.0,286047000.5,N
1570457455.8,286046998.8,N
1570457475.7,286046999.4,N
1570457495.5,286046998.9,N
1570457515.3,286046999.1,N
1570457535.2,286046998.8,N
1570457555.0,286046999.8,N
1570457555.9,286046999.8,N
1570457575.8,286047002.3,N
1570457595.6,286047002.2,N
1570457615.4,286047001.5,N
1570457635.3,286047003.1,N
1570457655.1,286047002.9,N
1570457675.8,286047007.4,Y
1570457695.7,286047004.9,P
1570457715.5,286047007.6,P
1570457735.4,286047007.5,N
1570457755.2,286047005.9,N
1570457775.0,286047004.9,N
1570457775.9,286047004.9,N
1570457795.8,286047004.9,N
1570457815.6,286047005.3,N
1570457835.4,286047004.0,N
1570457855.3,286047003.9,N
1570457875.1,286047004.0,N
1570457895.9,286047002.4,N
1570457915.7,286047002.5,N
1570457935.5,286047002.5,N
1570457955.4,286047000.1,N
1570457975.2,286047002.7,N
1570457995.0,286047002.5,N
1570457995.9,286047002.5,N
1570458015.8,286047002.5,N
1570458035.6,286047002.7,N
1570458055.5,286047000.5,N
1570458075.3,286047002.4,N
1570458095.1,286047002.7,N
1570458115.9,286047002.7,N
1570458135.7,286046999.7,N
1570458155.5,286047004.1,N
1570458175.4,286047004.4,N
1570458195.2,286047005.8,N
1570458215.1,286047003.5,N
1570458216.0,286047003.5,N
1570458235.8,286047006.0,Y
1570458255.6,286047000.5,P
1570458275.5,286046999.5,N
1570458295.3,286046999.9,N
1570458315.1,286047002.1,N
1570458335.9,286046998.8,N
1570458355.7,286046999.1,N
1570458375.6,286046999.5,N
1570458395.4,286047002.1,N
1570458415.2,286046999.0,N
1570458435.1,286046998.4,N
1570458436.0,286046998.4,N
1570458455.8,286046999.3,N
1570458475.6,286046998.1,N
1570458495.5,286047000.5,N
1570458515.3,286047001.5,N
1570458535.2,286047002.8,N
1570458555.9,286047000.8,N
1570458575.7,286046999.7,N
1570458595.6,286047002.0,N
1570458615.4,286047002.5,N
1570458635.2,286047004.1,N
1570458655.1,286047005.9,Y
1570458656.0,286047011.9,P
1570458675.8,286047003.2,N
1570458695.7,286047002.2,N
1570458715.5,286047004.4,N
1570458735.3,286047000.0,N
1570458755.2,286046998.5,N
1570458775.0,286047004.4,N
1570458775.9,286047004.4,N
1570458795.8,286047002.8,N
1570458815.6,286046998.1,N
1570458835.4,286047000.4,N
1570458855.3,286046999.9,N
1570458875.1,286047002.6,N
1570458895.8,286047000.9,N
1570458915.7,286047000.4,N
1570458935.5,286047001.8,N
1570458955.4,286046998.3,N
1570458975.2,286046997.3,N
1570458995.0,286046997.7,N
1570458995.9,286046997.7,N
1570459015.8,286046999.6,N
1570459035.6,286046998.7,N
1570459055.5,286046996.8,N
1570459075.3,286046996.5,N
1570459095.1,286046996.5,N
1570459115.9,286046997.4,N
1570459135.7,286046998.8,N
1570459155.5,286046997.5,N
1570459175.4,286046995.4,N
1570459195.2,286046993.9,N
1570459215.1,286046995.8,N
1570459216.0,286046995.8,N
1570459235.8,286046996.0,N
1570459255.6,286046996.2,N
1570459275.5,286046996.4,N
1570459295.3,286046995.8,N
1570459315.2,286046996.4,N
1570459335.9,286046996.1,N
1570459355.7,286046997.5,N
1570459375.6,286046997.2,N
1570459395.4,286046997.2,N
1570459415.3,286046997.9,N
1570459435.1,286046995.5,N
1570459436.0,286046995.5,N
1570459455.8,286046997.7,N
1570459475.7,286046997.5,N
1570459495.5,286046996.5,N
1570459515.3,286047001.0,N
1570459535.2,286046997.7,N
1570459555.0,286046997.5,N
1570459555.9,286046997.5,N
1570459575.8,286046997.5,N
1570459595.6,286046997.7,N
1570459615.4,286046995.7,Y
1570459635.3,286046999.4,P
1570459655.1,286046999.9,N
1570459675.8,286046998.7,N
1570459695.7,286047000.3,N
1570459715.5,286047000.6,N
1570459735.4,286047000.0,N
1570459755.2,286047000.4,N
1570459775.0,286046999.9,N
1570459775.9,286046999.9,N
1570459795.8,286046998.2,N
1570459815.6,286046999.0,N
1570459835.4,286047000.9,N
1570459855.3,286047000.3,N
1570459875.1,286046999.8,N
1570459895.9,286046996.5,Y
1570459915.7,286046999.1,P
1570459935.5,286047001.1,P
1570459955.4,286046998.0,N
1570459975.2,286046997.6,N
1570459995.1,286046994.8,Y
1570459996.0,286046994.8,P
1570460015.8,286046986.3,P
1570460035.6,286046995.8,N
1570460055.5,286046993.4,N
1570460075.3,286046993.6,N
1570460095.1,286046995.7,N
1570460115.9,286046993.8,N
1570460135.7,286046994.5,N
1570460155.6,286046994.0,N
1570460175.4,286046997.4,N
1570460195.2,286046993.4,N
1570460215.1,286046996.4,N
1570460216.0,286046996.4,N
1570460235.8,286046996.7,N
1570460255.6,286046998.0,N
1570460275.5,286046997.7,N
1570460295.3,286046998.0,N
1570460315.2,286046997.2,N
1570460335.9,286046995.3,N
1570460355.7,286046997.2,N
1570460375.6,286046999.6,N
1570460395.4,286046995.9,N
